Terminal Aerodrome Forecast
Issued by NWS Blacksburg, VA

Home | Current Version | Previous Version | Text Only | Print | Product List | Glossary On
Versions: 1 2 3 4 5 6 7 8 9 10 11 12 13 14 15 16 17 18 19 20 21 22 23 24
000
FTUS41 KRNK 171125
TAFDAN
TAF
KDAN 171125Z 1712/1812 04009KT P6SM BKN030 OVC045
     FM171400 05004KT P6SM SCT010 OVC020
     FM172000 06004KT P6SM SCT020 BKN040
     FM180100 02005KT P6SM SCT015
     FM180700 00000KT 5SM BR SCT007 BKN035
     FM181000 00000KT 3SM BR BKN005=

USA.gov is the U.S. government's official web portal to all federal, state and local government web resources and services.